CRVULIBAV Weather Reports


time (UTC)temp
F
wind
direction
speed
knots
gust
knots
rain 1hr
in
rain 24hr
in
rain mn
in
humidity
%
barometer
mb
20260507002139 55 180 15.6 0.0 0.00 0.00 0.00 71
20260506232140 55 170 15.6 0.0 0.00 0.00 0.00 71
20260506222411 57 170 17.4 26.9 0.00 0.00 0.00 67
20260506212154 57 180 15.6 0.0 0.00 0.00 0.00 67
20260506202211 59 170 15.6 0.0 0.00 0.00 0.00 62
20260506192347 61 170 15.6 0.0 0.00 0.00 0.00 55
20260506182244 61 170 15.6 28.7 0.00 0.00 0.00 55
20260506172209 63 160 15.6 0.0 0.00 0.00 0.00 55
20260506162410 63 170 15.6 25.2 0.00 0.00 0.00 51
20260506152227 63 170 12.2 0.0 0.00 0.00 0.00 55
20260506142155 64 180 13.9 0.0 0.00 0.00 0.00 52
20260506132155 64 180 12.2 0.0 0.00 0.00 0.00 52
20260506122154 66 200 13.9 0.0 0.00 0.00 0.00 42
20260506112141 64 200 12.2 20.9 0.00 0.00 0.00 48
20260506102342 61 200 12.2 0.0 0.00 0.00 0.00 59
20260506092123 59 210 12.2 0.0 0.00 0.00 0.00 67
20260506082139 57 220 13.9 0.0 0.00 0.00 0.00 67
20260506072142 55 220 13.9 0.0 0.00 0.00 0.00 76
20260506062213 54 210 13.9 0.0 0.00 0.00 0.00 76
20260506042354 48 200 13.9 0.0 0.00 0.00 0.00 87
20260506032141 50 200 15.6 0.0 0.00 0.00 0.00 76
20260506022141 50 190 13.9 0.0 0.00 0.00 0.00 76
20260506012242 52 190 13.9 0.0 0.00 0.00 0.00 71